Regional Weather Roundup
Issued by NWS State College, PA

Home | Current Version | Previous Version | Graphics & Text | Print | Product List | Glossary Off
Versions: 1 2 3 4 5 6 7 8 9 10 11 12 13 14 15 16 17 18 19 20 21 22 23 24 25 26 27 28 29 30 31 32 33 34 35 36 37 38 39 40 41 42 43 44 45 46 47 48 49 50

000
ASUS41 KCTP 010910
RWRCTP

REGIONAL WEATHER ROUNDUP
NATIONAL WEATHER SERVICE STATE COLLEGE PA
500 AM EDT SAT OCT 01 2016

Note: "fair" indicates few or no clouds below 12,000 feet with no
significant weather and/or obstructions to visibility.

* = STATION THAT DOES NOT REPORT PRECIPITATION /E.G. RAIN...SNOW...ETC/
    THUNDER OR FOG.

PAZ002>004-007>009-013>016-020>023-029>032-011000-
WESTERN PENNSYLVANIA

CITY           SKY/WX    TMP DP  RH WIND       PRES   REMARKS
ERIE           CLOUDY    59  56  89 SE3       30.11R
MEADVILLE      CLOUDY    55  53  93 VRB3      30.11S
FRANKLIN*        N/A     54  52  94 E8        30.14S
NEW CASTLE     LGT RAIN  57  56  96 E6        30.10F
BEAVER COUNTY  NOT AVBL
BUTLER*        CLOUDY    55  52  88 E6        30.14S
PITTSBURGH INT LGT RAIN  56  56 100 E6        30.08F
PITTSBURGH     LGT RAIN  57  54  89 E5        30.09S
INDIANA*       CLOUDY    57  55  94 CALM      30.14R
LATROBE        LGT RAIN  57  57 100 CALM      30.12R
WASHINGTON CO* CLOUDY    55  54  94 CALM      30.09F
$$

PAZ004>006-010>012-017>019-024>028-033>037-041-042-045-046-049>053-011000-
CENTRAL PENNSYLVANIA

CITY           SKY/WX    TMP DP  RH WIND       PRES   REMARKS
BRADFORD       RAIN      53  53 100 SE8       30.16S FOG
DUBOIS         CLOUDY    54  51  90 E8        30.13F
CLEARFIELD     HVY RAIN  54  54 100 NE6       30.17S FOG
JOHNSTOWN      CLOUDY    54  53  97 VRB5      30.13S
ALTOONA        CLOUDY    54  54 100 NE5       30.16S
STATE COLLEGE  DRIZZLE   54  53  98 N3        30.17S
WILLIAMSPORT   CLOUDY    57  55  93 NE5       30.18F
SELINSGROVE    CLOUDY    57  56  96 CALM      30.19S
FT INDIANTOWN  CLOUDY    55  53  91 E10       30.17F
CAPITAL CITY   CLOUDY    57  54  89 E12       30.16F FOG
HARRISBURG     CLOUDY    57  56  96 NE6       30.15F FOG
YORK           CLOUDY    57  57 100 E12       30.15S
$$

PAZ038>040-043-044-047-048-054-055-060>062-067>071-011000-
EASTERN PENNSYLVANIA

CITY           SKY/WX    TMP DP  RH WIND       PRES   REMARKS
SCRANTON       CLOUDY    55  50  83 NE7       30.21S
MOUNT POCONO   CLOUDY    49  48  97 E14       30.22
ALLENTOWN      CLOUDY    55  52  88 NE8       30.21S FOG
QUAKERTOWN*    CLOUDY    55  54  94 NE6       30.20S
READING        CLOUDY    56  53  90 N6        30.18S
LANCASTER      CLOUDY    57  56  96 E13       30.16S
COATESVILLE    CLOUDY    55  55 100 NE7G21    30.17F
POTTSTOWN      CLOUDY    55  54  96 NE9       30.20S
BLUE BELL      CLOUDY    54  54 100 NE6       30.18S
DOYLESTOWN     CLOUDY    56  55  97 NE7       30.19R
WILLOW GROVE   NOT AVBL
NORTH PHILA    CLOUDY    58  56  93 NE14      30.20R
PHILADELPHIA   CLOUDY    58  56  93 NE12      30.18S
$$



USA.gov is the U.S. government's official web portal to all federal, state and local government web resources and services.